Date String (YYYY-MM-DD hh:mm:ss) UTC,Instrument flags,absolute air pressure of the measurement (hPa),sample flow rate (lpm),inlet stack bypass flow (lpm),air temperature of the measurement (°C),ambient temperature measured by the external sensor (°C),aerosol sample conditioner tube jacket temperature (°C),OPC LED temperature (°C),internal box temperature (°C),relative humidity of the measurement (%),span deviation,mass concentration of particles derived from Lorenz-Mie calculation of OPC scattering (μg/m³),mass concentration of particles derived from Lorenz-Mie calculation of OPC scattering (μg/m³),mass concentration of particles derived from Lorenz-Mie calculation of OPC scattering (μg/m³)
DateTimeUTC,F1_M11,P_M11,Q1_M11,Q2_M11,T1_M11,T2_M11,T3_M11,T4_M11,T5_M11,U1_M11,ZSPAN_M11,X0_M11,X2_M11,X1_M11
2023-06-28 07:00:00,SystemResetWarning,0828.2,5.00,000.00,031.0,027.8,000.0,039.0,031.7,34.8,0003.6,0021.16,0009.41,0007.54
2023-06-28 07:01:00,SystemResetWarning,0828.2,4.99,000.00,031.2,027.9,000.0,039.0,031.7,34.5,0003.3,0021.41,0009.44,0007.59
2023-06-28 07:02:00,SystemResetWarning,0828.2,5.02,000.00,031.3,028.1,000.0,039.1,031.8,34.3,0003.0,0020.82,0009.50,0007.62
2023-06-28 07:03:00,SystemResetWarning,0828.2,4.99,000.00,031.4,028.2,000.0,039.1,031.8,34.2,0002.7,0021.00,0009.64,0007.65
2023-06-28 07:04:00,SystemResetWarning,0828.2,4.99,000.00,031.4,028.3,000.0,039.2,031.8,34.2,0002.3,0021.30,0009.65,0007.68
2023-06-28 07:05:00,SystemResetWarning,0828.3,5.00,000.00,031.4,028.4,000.0,039.3,031.8,34.1,0002.4,0021.34,0009.63,0007.71
2023-06-28 07:06:00,SystemResetWarning,0828.3,5.02,000.00,031.4,028.5,000.0,039.3,031.8,34.1,0002.4,0021.56,0009.64,0007.74
2023-06-28 07:07:00,SystemResetWarning,0828.3,4.99,000.00,031.5,027.6,000.0,039.3,031.9,34.1,0002.3,0021.56,0009.59,0007.73
2023-06-28 07:08:00,SystemResetWarning,0828.3,4.99,000.00,031.5,025.7,000.0,039.3,031.9,34.0,0002.4,0021.21,0009.54,0007.72
2023-06-28 07:09:00,SystemResetWarning,0828.3,5.01,000.00,031.5,025.2,000.0,039.2,031.8,34.1,0002.2,0021.06,0009.57,0007.71
2023-06-28 07:10:00,SystemResetWarning,0828.3,5.00,000.00,031.2,025.4,000.0,039.2,031.3,34.4,0001.9,0020.58,0009.63,0007.72
2023-06-28 07:11:00,SystemResetWarning,0828.3,5.00,000.00,031.1,025.8,000.0,039.3,031.3,34.6,0001.7,0021.08,0009.65,0007.69
2023-06-28 07:12:00,SystemResetWarning,0828.3,5.00,000.00,031.1,026.2,000.0,039.3,031.3,34.8,0001.7,0021.96,0009.63,0007.69
2023-06-28 07:13:00,SystemResetWarning,0828.3,5.01,000.00,031.0,026.6,000.0,039.3,031.4,34.8,0001.3,0021.93,0009.57,0007.68
2023-06-28 07:14:00,SystemResetWarning,0828.4,5.00,000.00,031.0,027.0,000.0,039.3,031.4,34.7,0001.3,0021.79,0009.50,0007.68
2023-06-28 07:15:00,SystemResetWarning,0828.4,5.00,000.00,030.9,027.3,000.0,039.3,031.5,34.7,0001.5,0021.21,0009.48,0007.71
2023-06-28 07:16:00,SystemResetWarning,0828.3,5.00,000.00,030.9,027.5,000.0,039.2,031.5,34.7,0001.0,0020.75,0009.50,0007.72
2023-06-28 07:17:00,SystemResetWarning,0828.4,5.00,000.00,030.9,027.7,000.0,039.2,031.5,34.5,0001.2,0020.60,0009.51,0007.74
2023-06-28 07:18:00,SystemResetWarning,0828.4,4.99,000.00,030.9,027.9,000.0,039.2,031.6,34.4,0001.3,0022.57,0009.60,0007.78
2023-06-28 07:19:00,SystemResetWarning,0828.4,5.02,000.00,030.9,028.0,000.0,039.2,031.6,34.4,0001.2,0023.56,0009.62,0007.80
2023-06-28 07:20:00,SystemResetWarning,0828.4,5.00,000.00,030.9,028.2,000.0,039.2,031.6,34.4,0001.1,0023.99,0009.61,0007.82
2023-06-28 07:21:00,SystemResetWarning,0828.4,5.00,000.00,030.9,028.3,000.0,039.2,031.6,34.3,0001.5,0024.56,0009.59,0007.81
2023-06-28 07:22:00,SystemResetWarning,0828.4,5.00,000.00,030.9,028.4,000.0,039.2,031.7,34.2,0001.5,0024.26,0009.61,0007.81
2023-06-28 07:23:00,SystemResetWarning,0828.4,5.00,000.00,030.9,028.4,000.0,039.2,031.7,34.3,0001.5,0023.19,0009.66,0007.81
2023-06-28 07:24:00,SystemResetWarning,0828.4,4.99,000.00,030.9,027.7,000.0,039.2,031.7,34.2,0002.2,0023.06,0009.69,0007.81
2023-06-28 07:25:00,SystemResetWarning,0828.4,5.00,000.00,030.9,025.7,000.0,039.1,031.7,34.1,0002.5,0023.21,0009.75,0007.82
2023-06-28 07:26:00,SystemResetWarning,0828.4,5.01,000.00,030.8,025.0,000.0,039.0,031.6,34.0,0002.7,0023.43,0009.78,0007.81
2023-06-28 07:27:00,SystemResetWarning,0828.4,5.00,000.00,030.6,025.2,000.0,039.0,031.2,34.4,0002.7,0023.51,0009.80,0007.81
2023-06-28 07:28:00,SystemResetWarning,0828.4,5.00,000.00,030.5,025.6,000.0,039.0,031.2,34.7,0002.4,0023.23,0009.79,0007.81
2023-06-28 07:29:00,SystemResetWarning,0828.4,4.99,000.00,030.5,026.1,000.0,039.0,031.2,34.9,0002.1,0022.34,0009.80,0007.82
2023-06-28 07:30:00,SystemResetWarning,0828.4,4.99,000.00,030.5,026.5,000.0,039.0,031.3,35.2,0002.4,0020.87,0009.80,0007.82
2023-06-28 07:31:00,SystemResetWarning,0828.4,5.01,000.00,030.6,026.9,000.0,039.0,031.4,34.9,0002.1,0020.38,0009.85,0007.85
2023-06-28 07:32:00,SystemResetWarning,0828.4,4.97,000.00,030.8,027.2,000.0,038.9,031.5,34.5,0001.8,0019.43,0009.85,0007.86
2023-06-28 07:33:00,SystemResetWarning,0828.4,5.02,000.00,030.9,027.4,000.0,038.9,031.5,34.3,0001.8,0019.30,0009.83,0007.88
2023-06-28 07:34:00,SystemResetWarning,0828.4,4.99,000.00,030.9,027.6,000.0,039.0,031.5,34.2,0001.6,0018.97,0009.79,0007.91
2023-06-28 07:35:00,SystemResetWarning,0828.4,4.99,000.00,031.0,027.8,000.0,039.0,031.5,34.1,0001.7,0018.74,0009.87,0007.94
2023-06-28 07:36:00,SystemResetWarning,0828.4,5.00,000.00,031.0,028.0,000.0,039.0,031.6,34.1,0001.5,0018.93,0009.87,0007.98
2023-06-28 07:37:00,SystemResetWarning,0828.4,5.00,000.00,031.0,028.1,000.0,039.1,031.6,34.2,0001.7,0019.68,0009.89,0008.01
2023-06-28 07:38:00,SystemResetWarning,0828.4,5.01,000.00,031.0,028.2,000.0,039.1,031.6,34.2,0002.0,0020.21,0009.83,0008.00
2023-06-28 07:39:00,SystemResetWarning,0828.4,4.99,000.00,031.0,028.3,000.0,039.1,031.7,34.2,0001.8,0020.32,0009.79,0007.99
2023-06-28 07:40:00,SystemResetWarning,0828.4,4.99,000.00,031.0,028.4,000.0,039.2,031.7,34.3,0002.0,0020.37,0009.77,0007.98
2023-06-28 07:41:00,SystemResetWarning,0828.4,5.01,000.00,031.0,028.4,000.0,039.2,031.8,34.3,0002.0,0020.14,0009.79,0007.98
2023-06-28 07:42:00,SystemResetWarning,0828.4,5.01,000.00,031.0,028.5,000.0,039.2,031.8,34.3,0001.6,0020.61,0009.73,0007.96
2023-06-28 07:43:00,SystemResetWarning,0828.4,4.98,000.00,031.1,027.0,000.0,039.2,031.8,34.3,0000.0,0021.35,0009.73,0007.97
2023-06-28 07:44:00,SystemResetWarning,0828.4,5.01,000.00,031.1,025.4,000.0,039.1,031.8,34.4,0000.0,0020.93,0009.76,0007.98
2023-06-28 07:45:00,SystemResetWarning,0828.4,5.01,000.00,031.0,025.1,000.0,039.1,031.7,34.5,0000.0,0020.41,0009.79,0007.98
2023-06-28 07:46:00,SystemResetWarning,0828.4,5.00,000.00,030.8,025.4,000.0,039.1,031.3,34.9,0000.0,0020.36,0009.72,0007.98
2023-06-28 07:47:00,SystemResetWarning,0828.4,4.99,000.00,030.8,025.8,000.0,039.1,031.3,35.2,0000.0,0020.52,0009.68,0007.97
2023-06-28 07:48:00,SystemResetWarning,0828.4,5.03,000.00,031.0,026.3,000.0,039.1,031.4,34.8,0002.2,0020.16,0009.64,0007.97
2023-06-28 07:49:00,SystemResetWarning,0828.4,4.96,000.00,031.1,026.7,000.0,039.1,031.5,34.5,0002.6,0020.12,0009.64,0007.99
2023-06-28 07:50:00,SystemResetWarning,0828.4,5.02,000.00,031.2,027.0,000.0,039.1,031.5,34.3,0002.1,0020.34,0009.66,0008.01
2023-06-28 07:51:00,SystemResetWarning,0828.4,5.00,000.00,031.2,027.3,000.0,039.1,031.6,34.2,0002.5,0020.62,0009.70,0008.04
2023-06-28 07:52:00,SystemResetWarning,0828.4,4.98,000.00,031.3,027.6,000.0,039.2,031.6,34.2,0002.5,0021.25,0009.79,0008.09
2023-06-28 07:53:00,SystemResetWarning,0828.5,5.02,000.00,031.3,027.8,000.0,039.2,031.6,34.2,0002.9,0020.80,0009.83,0008.14
2023-06-28 07:54:00,SystemResetWarning,0828.5,4.99,000.00,031.3,027.9,000.0,039.3,031.6,34.2,0003.4,0020.77,0009.80,0008.14
2023-06-28 07:55:00,SystemResetWarning,0828.5,4.99,000.00,031.3,028.1,000.0,039.3,031.7,34.1,0003.1,0021.36,0009.76,0008.14
2023-06-28 07:56:00,SystemResetWarning,0828.6,5.02,000.00,031.3,028.2,000.0,039.3,031.7,34.1,0002.9,0021.27,0009.70,0008.15
2023-06-28 07:57:00,SystemResetWarning,0828.6,4.99,000.00,031.3,028.3,000.0,039.4,031.8,34.1,0003.1,0021.42,0009.77,0008.15
2023-06-28 07:58:00,SystemResetWarning,0828.5,4.99,000.00,031.3,028.4,000.0,039.4,031.8,34.1,0003.3,0021.60,0009.79,0008.15
2023-06-28 07:59:00,SystemResetWarning,0828.6,5.01,000.00,031.3,028.5,000.0,039.4,031.8,34.1,0003.5,0021.99,0009.82,0008.15
